カタログに戻る

FENGYUN 1C DEB

運用中SSO
NORAD 31023·DEBRIS·🇨🇳 China

打ち上げ May 10, 1999 から Taiyuan Satellite Launch Center

Loading…

次のパス (今後24時間)

TLE

最新Source: Space-Track

元期: Sep 12, 2026, 04:34 UTC

1 31023U 99025BDR 26255.19083573  .00000090  00000-0  77590-4 0  9991
2 31023  98.8406 239.1027 0082264 172.7910 187.4462 14.06822814733460

AllMySatでFENGYUN 1C DEBをリアルタイム追跡

Download on the App Store